Northeast Philadelphia, PA

11:34 AM EST on November 15, 2019 (GMT -0500)
Northeast Philadelphia

Weather History for KPNE - September, 2019

Change the Weather History Date:

Saturday, September 7, 2019

  Actual Average Record
Temperature  
Mean Temperature 68 °F -  
Max Temperature 81 °F 78 °F 91 °F (1998)
Min Temperature 57 °F 60 °F 48 °F (2000)
Cooling Degree Days 3    
Growing Degree Days 18 (Base 50)    
Moisture  
Dew Point 55 °F    
Average Humidity 65    
Maximum Humidity 87    
Minimum Humidity 42    
Precipitation  
Precipitation 0.00 in - - ()
Sea Level Pressure  
Sea Level Pressure 29.85 in    
Wind  
Wind Speed 7 mph ()    
Max Wind Speed 16 mph    
Max Gust Speed -    
Visibility 10.0 miles    
Events      
Averages and records for this station are not official NWS values.
T = Trace of Precipitation, MM = Missing Value Source: Averaged Metar Reports

Daily Weather History Graph

Daily Weather History Graph

Search for Another Location

Airport or City:

Astronomy

Sep. 07, 2019 Rise Set
Actual Time 6:33 AM EDT 7:22 PM EDT
Civil Twilight 6:05 AM EDT 7:49 PM EDT
Nautical Twilight 5:32 AM EDT 8:22 PM EDT
Astronomical Twilight 4:59 AM EDT 8:55 PM EDT
Moon 3:36 PM EDT (9/7) 12:23 AM EDT (9/7)
Length of Visible Light 13h 44m
Length of Day
12h 49m
Waxing Gibbous, 65% of the Moon is Illuminated
Sep 7
Waxing Gibbous
Sep 14
Full
Sep 21
Last Quarter
Sep 28
New
Oct 5
First Quarter

Hourly Weather History & Observations

Time (EDT) Temp. Dew Point Humidity Pressure Visibility Wind Dir Wind Speed Gust Speed Precip Events Conditions
12:13 AM 61.0 °F 55.9 °F 83% 29.79 in 10.0 mi NNE 8.1 mph - N/A   Overcast
12:54 AM 60.1 °F 55.0 °F 83% 29.79 in 10.0 mi NNW 10.4 mph - N/A   Clear
1:17 AM 60.1 °F 55.0 °F 83% 29.79 in 10.0 mi NNW 6.9 mph - N/A   Mostly Cloudy
1:36 AM 60.1 °F 55.0 °F 83% 29.79 in 10.0 mi NNW 8.1 mph - N/A   Scattered Clouds
1:54 AM 60.1 °F 55.0 °F 83% 29.79 in 10.0 mi NNW 5.8 mph - N/A   Mostly Cloudy
2:54 AM 59.0 °F 54.0 °F 83% 29.79 in 10.0 mi NNW 6.9 mph - N/A   Clear
3:54 AM 59.0 °F 54.0 °F 83% 29.80 in 10.0 mi NNW 6.9 mph - N/A   Clear
4:54 AM 57.9 °F 53.1 °F 84% 29.81 in 10.0 mi NNW 5.8 mph - N/A   Clear
5:54 AM 57.0 °F 53.1 °F 87% 29.83 in 10.0 mi NW 8.1 mph - N/A   Clear
6:54 AM 57.9 °F 53.1 °F 84% 29.84 in 10.0 mi NNW 5.8 mph - N/A   Clear
7:54 AM 61.0 °F 53.1 °F 75% 29.86 in 10.0 mi Variable 4.6 mph - N/A   Clear
8:54 AM 64.9 °F 54.0 °F 68% 29.88 in 10.0 mi WNW 4.6 mph - N/A   Clear
9:54 AM 69.1 °F 54.0 °F 58% 29.87 in 10.0 mi West 8.1 mph - N/A   Clear
10:54 AM 73.0 °F 55.9 °F 55% 29.87 in 10.0 mi WNW 6.9 mph - N/A   Clear
11:54 AM 75.0 °F 55.9 °F 51% 29.86 in 10.0 mi West 8.1 mph - N/A   Clear
12:54 PM 78.1 °F 55.0 °F 45% 29.86 in 10.0 mi NNW 15.0 mph - N/A   Mostly Cloudy
1:54 PM 79.0 °F 55.0 °F 44% 29.85 in 10.0 mi West 11.5 mph - N/A   Scattered Clouds
2:54 PM 79.0 °F 54.0 °F 42% 29.85 in 10.0 mi WNW 12.7 mph - N/A   Scattered Clouds
3:54 PM 78.1 °F 54.0 °F 43% 29.85 in 10.0 mi WNW 16.1 mph - N/A   Mostly Cloudy
4:54 PM 79.0 °F 54.0 °F 42% 29.85 in 10.0 mi NW 12.7 mph - N/A   Mostly Cloudy
5:54 PM 77.0 °F 53.1 °F 43% 29.86 in 10.0 mi NW 9.2 mph - N/A   Mostly Cloudy
6:54 PM 75.0 °F 53.1 °F 46% 29.88 in 10.0 mi West 6.9 mph - N/A   Clear
7:54 PM 71.1 °F 54.0 °F 55% 29.90 in 10.0 mi West 3.5 mph - N/A   Clear
8:54 PM 68.0 °F 55.9 °F 65% 29.92 in 10.0 mi West 3.5 mph - N/A   Clear
9:54 PM 66.9 °F 57.0 °F 70% 29.94 in 10.0 mi WSW 3.5 mph - N/A   Mostly Cloudy
10:54 PM 69.1 °F 57.0 °F 65% 29.94 in 10.0 mi WSW 3.5 mph - N/A   Overcast
11:54 PM 68.0 °F 55.9 °F 65% 29.94 in 10.0 mi WSW 4.6 mph - N/A   Partly Cloudy